| time (UTC) | temp C | wind direction | speed KPH | gust KPH | rain 1hr cm | rain 24hr cm | rain mn cm | humidity % | barometer mb |
| 20260902123404 | 8 | 342 | 0.0 | 0.0 | 0.00 | 0.41 | 0.13 | 78 | 1017.8 |
| 20260902122905 | 8 | 342 | 0.0 | 0.0 | 0.00 | 0.41 | 0.13 | 78 | 1017.8 |
| 20260902121904 | 8 | 342 | 0.0 | 0.0 | 0.00 | 0.41 | 0.13 | 78 | 1017.8 |
| 20260902121404 | 9 | 342 | 0.0 | 0.0 | 0.00 | 0.41 | 0.13 | 78 | 1017.7 |
| 20260902120404 | 9 | 342 | 0.0 | 0.0 | 0.00 | 0.41 | 0.13 | 78 | 1017.8 |
| 20260902115404 | 9 | 342 | 0.0 | 0.0 | 0.00 | 0.41 | 0.13 | 78 | 1017.8 |
| 20260902114904 | 9 | 342 | 0.0 | 0.0 | 0.00 | 0.41 | 0.13 | 78 | 1017.9 |
| 20260902114404 | 9 | 342 | 0.0 | 0.0 | 0.00 | 0.41 | 0.13 | 78 | 1018.0 |
| 20260902113904 | 9 | 342 | 0.0 | 0.0 | 0.00 | 0.41 | 0.13 | 78 | 1017.9 |
| 20260902113404 | 9 | 342 | 0.0 | 0.0 | 0.00 | 0.41 | 0.13 | 78 | 1018.0 |
| 20260902112904 | 9 | 342 | 0.0 | 0.0 | 0.00 | 0.41 | 0.13 | 78 | 1018.0 |
| 20260902112405 | 9 | 342 | 0.0 | 0.0 | 0.00 | 0.41 | 0.13 | 78 | 1018.0 |
| 20260902111904 | 10 | 342 | 0.0 | 0.0 | 0.00 | 0.41 | 0.13 | 78 | 1017.9 |
| 20260902111404 | 10 | 342 | 0.0 | 0.0 | 0.00 | 0.41 | 0.13 | 78 | 1017.9 |
| 20260902110904 | 10 | 342 | 0.0 | 0.0 | 0.00 | 0.41 | 0.13 | 78 | 1017.9 |
| 20260902110404 | 10 | 342 | 0.0 | 0.0 | 0.00 | 0.41 | 0.13 | 78 | 1018.0 |
| 20260902105904 | 10 | 342 | 0.0 | 0.0 | 0.00 | 0.41 | 0.13 | 78 | 1018.0 |
| 20260902105404 | 10 | 342 | 0.0 | 0.0 | 0.00 | 0.41 | 0.13 | 78 | 1018.1 |
| 20260902104905 | 10 | 342 | 0.0 | 0.0 | 0.00 | 0.41 | 0.13 | 78 | 1018.3 |
| 20260902103904 | 10 | 342 | 0.0 | 0.0 | 0.00 | 0.41 | 0.13 | 78 | 1018.3 |
| 20260902103404 | 10 | 342 | 0.0 | 0.0 | 0.00 | 0.41 | 0.13 | 78 | 1018.5 |
| 20260902102904 | 10 | 342 | 0.0 | 0.0 | 0.00 | 0.41 | 0.13 | 78 | 1018.5 |
| 20260902102404 | 10 | 342 | 0.0 | 0.0 | 0.00 | 0.41 | 0.13 | 78 | 1018.3 |
| 20260902101404 | 10 | 346 | 0.0 | 0.0 | 0.00 | 0.43 | 0.13 | 78 | 1018.0 |
| 20260902100904 | 10 | 346 | 0.0 | 0.0 | 0.00 | 0.43 | 0.13 | 78 | 1018.0 |
| 20260902100404 | 10 | 346 | 0.0 | 0.0 | 0.00 | 0.43 | 0.13 | 78 | 1018.1 |
| 20260902095904 | 11 | 346 | 0.0 | 0.0 | 0.03 | 0.43 | 0.13 | 78 | 1018.0 |
| 20260902094904 | 11 | 346 | 0.0 | 0.0 | 0.03 | 0.43 | 0.13 | 78 | 1017.9 |
| 20260902094404 | 11 | 346 | 0.0 | 0.0 | 0.03 | 0.43 | 0.13 | 79 | 1018.0 |
| 20260902093904 | 11 | 346 | 0.0 | 14.5 | 0.03 | 0.43 | 0.13 | 79 | 1018.1 |
| 20260902093404 | 10 | 329 | 1.6 | 14.5 | 0.03 | 0.43 | 0.13 | 79 | 1018.2 |
| 20260902092904 | 10 | 338 | 0.0 | 0.0 | 0.03 | 0.43 | 0.13 | 78 | 1018.5 |
| 20260902092404 | 10 | 235 | 0.0 | 0.0 | 0.03 | 0.43 | 0.13 | 78 | 1018.6 |
| 20260902091904 | 10 | 234 | 0.0 | 0.0 | 0.03 | 0.43 | 0.13 | 78 | 1018.6 |
| 20260902091404 | 10 | 234 | 0.0 | 0.0 | 0.05 | 0.43 | 0.13 | 78 | 1018.6 |
| 20260902090404 | 10 | 234 | 0.0 | 0.0 | 0.08 | 0.43 | 0.13 | 78 | 1019.0 |
| 20260902085904 | 10 | 234 | 0.0 | 0.0 | 0.08 | 0.41 | 0.10 | 78 | 1018.9 |
| 20260902084904 | 10 | 234 | 0.0 | 0.0 | 0.10 | 0.41 | 0.10 | 78 | 1018.7 |
| 20260902084404 | 10 | 232 | 0.0 | 0.0 | 0.10 | 0.41 | 0.10 | 78 | 1019.0 |
| 20260902083904 | 10 | 232 | 0.0 | 0.0 | 0.10 | 0.41 | 0.10 | 78 | 1019.1 |
| 20260902083404 | 10 | 232 | 0.0 | 0.0 | 0.10 | 0.41 | 0.10 | 78 | 1019.2 |
| 20260902082904 | 10 | 232 | 0.0 | 0.0 | 0.10 | 0.41 | 0.10 | 78 | 1019.3 |
| 20260902081904 | 10 | 232 | 0.0 | 0.0 | 0.10 | 0.41 | 0.10 | 78 | 1019.4 |
| 20260902081404 | 10 | 232 | 0.0 | 0.0 | 0.08 | 0.38 | 0.08 | 78 | 1019.3 |
| 20260902080904 | 10 | 232 | 0.0 | 0.0 | 0.08 | 0.38 | 0.08 | 78 | 1019.4 |
| 20260902080404 | 9 | 232 | 1.6 | 9.7 | 0.05 | 0.36 | 0.05 | 77 | 1019.3 |
| 20260902075904 | 9 | 178 | 0.0 | 14.5 | 0.03 | 0.33 | 0.03 | 77 | 1019.2 |
| 20260902074904 | 9 | 223 | 0.0 | 4.8 | 0.00 | 0.30 | 0.00 | 76 | 1018.6 |
| 20260902073904 | 8 | 219 | 0.0 | 0.0 | 0.00 | 0.30 | 0.00 | 76 | 1018.2 |
| 20260902073404 | 8 | 219 | 0.0 | 0.0 | 0.00 | 0.30 | 0.00 | 76 | 1018.1 |
| 20260902072904 | 8 | 220 | 0.0 | 0.0 | 0.00 | 0.30 | 0.00 | 76 | 1018.1 |
| 20260902072404 | 8 | 220 | 0.0 | 0.0 | 0.00 | 0.30 | 0.00 | 76 | 1017.9 |
| 20260902071904 | 8 | 220 | 0.0 | 0.0 | 0.00 | 0.30 | 0.00 | 76 | 1018.0 |
| 20260902071404 | 8 | 213 | 0.0 | 0.0 | 0.00 | 0.30 | 0.00 | 76 | 1018.1 |
| 20260902070904 | 8 | 213 | 0.0 | 0.0 | 0.00 | 0.30 | 0.00 | 75 | 1018.0 |
| 20260902070404 | 8 | 213 | 1.6 | 3.2 | 0.00 | 0.30 | 0.00 | 75 | 1018.1 |
| 20260902065904 | 8 | 160 | 0.0 | 0.0 | 0.00 | 0.30 | 0.00 | 75 | 1018.2 |
| 20260902065404 | 8 | 160 | 0.0 | 0.0 | 0.00 | 0.30 | 0.00 | 75 | 1018.2 |
| 20260902064404 | 8 | 160 | 0.0 | 0.0 | 0.00 | 0.30 | 0.00 | 75 | 1018.2 |
| 20260902062904 | 9 | 160 | 0.0 | 0.0 | 0.00 | 0.30 | 0.00 | 74 | 1018.2 |
| 20260902061904 | 9 | 160 | 0.0 | 0.0 | 0.00 | 0.30 | 0.00 | 74 | 1018.2 |
| 20260902061404 | 9 | 160 | 0.0 | 0.0 | 0.00 | 0.30 | 0.00 | 74 | 1018.3 |
| 20260902060904 | 9 | 160 | 0.0 | 0.0 | 0.00 | 0.30 | 0.00 | 74 | 1018.3 |
| 20260902055904 | 10 | 160 | 0.0 | 0.0 | 0.00 | 0.30 | 0.30 | 73 | 1018.3 |
| 20260902055404 | 10 | 160 | 0.0 | 0.0 | 0.00 | 0.30 | 0.30 | 73 | 1018.4 |
| 20260902054404 | 10 | 160 | 0.0 | 0.0 | 0.00 | 0.30 | 0.30 | 73 | 1018.5 |
| 20260902053904 | 10 | 160 | 0.0 | 0.0 | 0.00 | 0.30 | 0.30 | 72 | 1018.5 |
| 20260902053404 | 10 | 160 | 0.0 | 0.0 | 0.00 | 0.30 | 0.30 | 72 | 1018.5 |
| 20260902052904 | 10 | 160 | 0.0 | 0.0 | 0.00 | 0.30 | 0.30 | 72 | 1018.5 |
| 20260902052404 | 10 | 160 | 0.0 | 0.0 | 0.00 | 0.30 | 0.30 | 72 | 1018.4 |
| 20260902051904 | 10 | 160 | 0.0 | 0.0 | 0.00 | 0.30 | 0.30 | 72 | 1018.4 |
| 20260902051404 | 10 | 160 | 0.0 | 0.0 | 0.00 | 0.30 | 0.30 | 72 | 1018.5 |
| 20260902050904 | 11 | 160 | 0.0 | 0.0 | 0.00 | 0.30 | 0.30 | 71 | 1018.5 |
| 20260902050404 | 11 | 160 | 0.0 | 0.0 | 0.00 | 0.30 | 0.30 | 71 | 1018.6 |
| 20260902045904 | 11 | 160 | 0.0 | 0.0 | 0.00 | 0.30 | 0.30 | 71 | 1018.6 |
| 20260902045404 | 11 | 160 | 0.0 | 0.0 | 0.00 | 0.30 | 0.30 | 71 | 1018.6 |
| 20260902044904 | 11 | 160 | 0.0 | 0.0 | 0.00 | 0.30 | 0.30 | 71 | 1018.7 |
| 20260902044404 | 11 | 160 | 0.0 | 0.0 | 0.00 | 0.30 | 0.30 | 71 | 1018.7 |
| 20260902043904 | 11 | 160 | 0.0 | 0.0 | 0.00 | 0.30 | 0.30 | 71 | 1018.6 |
| 20260902042904 | 11 | 160 | 0.0 | 0.0 | 0.00 | 0.30 | 0.30 | 71 | 1018.5 |
| 20260902042404 | 11 | 186 | 0.0 | 0.0 | 0.00 | 0.30 | 0.30 | 70 | 1018.5 |
| 20260902041904 | 11 | 221 | 0.0 | 0.0 | 0.00 | 0.30 | 0.30 | 70 | 1018.4 |
| 20260902041404 | 11 | 221 | 0.0 | 0.0 | 0.00 | 0.30 | 0.30 | 69 | 1018.4 |
| 20260902040905 | 12 | 221 | 0.0 | 0.0 | 0.00 | 0.30 | 0.30 | 69 | 1018.4 |
| 20260902035404 | 12 | 221 | 0.0 | 0.0 | 0.00 | 0.30 | 0.30 | 69 | 1018.3 |
| 20260902034904 | 12 | 221 | 0.0 | 0.0 | 0.00 | 0.30 | 0.30 | 69 | 1018.2 |
| 20260902034404 | 12 | 221 | 0.0 | 0.0 | 0.00 | 0.30 | 0.30 | 68 | 1018.2 |
| 20260902033904 | 12 | 221 | 0.0 | 0.0 | 0.00 | 0.30 | 0.30 | 66 | 1018.1 |
| 20260902033404 | 13 | 221 | 0.0 | 0.0 | 0.03 | 0.30 | 0.30 | 65 | 1018.1 |
| 20260902032904 | 13 | 221 | 0.0 | 0.0 | 0.03 | 0.30 | 0.30 | 64 | 1018.1 |
| 20260902031904 | 13 | 221 | 0.0 | 0.0 | 0.03 | 0.30 | 0.30 | 64 | 1018.1 |
| 20260902031406 | 13 | 221 | 0.0 | 0.0 | 0.03 | 0.30 | 0.30 | 65 | 1018.1 |
| 20260902030904 | 14 | 221 | 0.0 | 0.0 | 0.03 | 0.30 | 0.30 | 65 | 1018.1 |
| 20260902030404 | 14 | 221 | 0.0 | 0.0 | 0.03 | 0.30 | 0.30 | 65 | 1018.1 |
| 20260902025904 | 15 | 221 | 0.0 | 0.0 | 0.03 | 0.30 | 0.30 | 63 | 1018.0 |
| 20260902025404 | 15 | 221 | 0.0 | 0.0 | 0.03 | 0.30 | 0.30 | 61 | 1017.9 |
| 20260902024904 | 15 | 220 | 0.0 | 0.0 | 0.03 | 0.30 | 0.30 | 60 | 1017.9 |
| 20260902023404 | 16 | 221 | 0.0 | 3.2 | 0.00 | 0.28 | 0.28 | 53 | 1018.5 |
| 20260902022404 | 16 | 201 | 0.0 | 0.0 | 0.00 | 0.28 | 0.28 | 52 | 1017.7 |
| 20260902021904 | 16 | 201 | 0.0 | 0.0 | 0.00 | 0.28 | 0.28 | 52 | 1017.7 |
| 20260902021404 | 17 | 201 | 0.0 | 0.0 | 0.00 | 0.28 | 0.28 | 50 | 1017.7 |
| 20260902020904 | 17 | 201 | 0.0 | 0.0 | 0.00 | 0.28 | 0.28 | 50 | 1017.7 |
| 20260902020404 | 17 | 201 | 0.0 | 0.0 | 0.00 | 0.28 | 0.28 | 45 | 1017.6 |
| 20260902015904 | 18 | 200 | 0.0 | 0.0 | 0.00 | 0.28 | 0.28 | 44 | 1017.4 |
| 20260902015404 | 18 | 195 | 0.0 | 1.6 | 0.00 | 0.28 | 0.28 | 41 | 1017.3 |
| 20260902014904 | 19 | 190 | 4.8 | 27.4 | 0.00 | 0.28 | 0.28 | 40 | 1017.7 |
| 20260902014404 | 20 | 207 | 9.7 | 20.9 | 0.00 | 0.28 | 0.28 | 37 | 1017.4 |
| 20260902013904 | 20 | 184 | 0.0 | 0.0 | 0.00 | 0.28 | 0.28 | 43 | 1016.9 |
| 20260902012904 | 20 | 173 | 0.0 | 0.0 | 0.00 | 0.28 | 0.28 | 41 | 1016.8 |
| 20260902012404 | 20 | 173 | 0.0 | 0.0 | 0.00 | 0.28 | 0.28 | 40 | 1016.6 |
| 20260902011905 | 21 | 171 | 0.0 | 0.0 | 0.00 | 0.28 | 0.28 | 39 | 1016.7 |
| 20260902011404 | 21 | 171 | 0.0 | 0.0 | 0.00 | 0.28 | 0.28 | 39 | 1016.8 |
| 20260902010904 | 21 | 211 | 0.0 | 0.0 | 0.00 | 0.28 | 0.28 | 41 | 1016.8 |
| 20260902010404 | 21 | 227 | 0.0 | 0.0 | 0.00 | 0.28 | 0.28 | 42 | 1016.8 |
| 20260902005405 | 21 | 227 | 0.0 | 0.0 | 0.00 | 0.28 | 0.28 | 38 | 1016.8 |
| 20260902004904 | 22 | 227 | 0.0 | 0.0 | 0.00 | 0.28 | 0.28 | 34 | 1016.8 |
| 20260902004404 | 22 | 227 | 0.0 | 0.0 | 0.00 | 0.28 | 0.28 | 34 | 1016.9 |
| 20260902003904 | 22 | 227 | 0.0 | 0.0 | 0.00 | 0.28 | 0.28 | 34 | 1016.9 |
| 20260902003404 | 22 | 227 | 0.0 | 0.0 | 0.00 | 0.28 | 0.28 | 33 | 1016.8 |
| 20260902002904 | 22 | 227 | 0.0 | 0.0 | 0.00 | 0.28 | 0.28 | 33 | 1016.8 |
| 20260902002404 | 22 | 228 | 0.0 | 8.0 | 0.00 | 0.28 | 0.28 | 31 | 1016.8 |
| 20260902001904 | 22 | 223 | 1.6 | 8.0 | 0.00 | 0.28 | 0.28 | 32 | 1016.9 |
| 20260902001404 | 22 | 229 | 1.6 | 4.8 | 0.00 | 0.28 | 0.28 | 32 | 1016.9 |
| 20260902000406 | 23 | 225 | 0.0 | 3.2 | 0.00 | 0.28 | 0.28 | 31 | 1017.0 |
| 20260901235904 | 23 | 225 | 0.0 | 4.8 | 0.00 | 0.28 | 0.28 | 29 | 1017.0 |
| 20260901234904 | 24 | 229 | 1.6 | 12.9 | 0.00 | 0.28 | 0.28 | 30 | 1017.0 |
| 20260901234404 | 24 | 236 | 1.6 | 4.8 | 0.00 | 0.28 | 0.28 | 27 | 1017.0 |
| 20260901233904 | 23 | 217 | 6.4 | 12.9 | 0.00 | 0.28 | 0.28 | 29 | 1017.0 |
| 20260901233404 | 23 | 250 | 4.8 | 9.7 | 0.00 | 0.28 | 0.28 | 29 | 1016.9 |
| 20260901232904 | 23 | 227 | 3.2 | 4.8 | 0.00 | 0.28 | 0.28 | 33 | 1017.0 |
| 20260901232404 | 23 | 217 | 1.6 | 4.8 | 0.00 | 0.28 | 0.28 | 30 | 1017.1 |
| 20260901231904 | 23 | 217 | 1.6 | 8.0 | 0.00 | 0.28 | 0.28 | 32 | 1017.1 |
| 20260901231404 | 23 | 221 | 1.6 | 9.7 | 0.00 | 0.28 | 0.28 | 32 | 1017.1 |
| 20260901230904 | 23 | 221 | 0.0 | 4.8 | 0.00 | 0.28 | 0.28 | 32 | 1017.3 |
| 20260901230404 | 23 | 234 | 3.2 | 4.8 | 0.00 | 0.28 | 0.28 | 32 | 1017.3 |
| 20260901225904 | 23 | 253 | 1.6 | 9.7 | 0.00 | 0.28 | 0.28 | 31 | 1017.3 |
| 20260901224904 | 23 | 234 | 4.8 | 12.9 | 0.00 | 0.28 | 0.28 | 30 | 1017.4 |
| 20260901224405 | 23 | 253 | 1.6 | 14.5 | 0.00 | 0.28 | 0.28 | 30 | 1017.3 |
| 20260901223904 | 23 | 233 | 6.4 | 14.5 | 0.00 | 0.28 | 0.28 | 30 | 1017.4 |
| 20260901223404 | 23 | 222 | 4.8 | 9.7 | 0.00 | 0.28 | 0.28 | 31 | 1017.4 |
| 20260901222904 | 23 | 231 | 4.8 | 14.5 | 0.00 | 0.28 | 0.28 | 31 | 1017.5 |
| 20260901222404 | 23 | 226 | 1.6 | 8.0 | 0.00 | 0.28 | 0.28 | 33 | 1017.5 |
| 20260901221904 | 23 | 247 | 0.0 | 4.8 | 0.00 | 0.28 | 0.28 | 35 | 1017.5 |
| 20260901220404 | 22 | 190 | 1.6 | 4.8 | 0.00 | 0.28 | 0.28 | 34 | 1017.7 |
| 20260901215904 | 22 | 241 | 0.0 | 4.8 | 0.00 | 0.28 | 0.28 | 35 | 1017.8 |
| 20260901215404 | 22 | 233 | 1.6 | 8.0 | 0.00 | 0.28 | 0.28 | 35 | 1017.9 |
| 20260901214904 | 22 | 223 | 3.2 | 12.9 | 0.00 | 0.28 | 0.28 | 35 | 1017.9 |
| 20260901214404 | 22 | 227 | 3.2 | 8.0 | 0.00 | 0.28 | 0.28 | 36 | 1018.0 |
| 20260901213904 | 22 | 135 | 1.6 | 8.0 | 0.00 | 0.28 | 0.28 | 36 | 1018.0 |
| 20260901213404 | 22 | 191 | 0.0 | 3.2 | 0.00 | 0.28 | 0.28 | 37 | 1018.1 |
| 20260901212404 | 22 | 238 | 0.0 | 0.0 | 0.00 | 0.28 | 0.28 | 39 | 1018.1 |
| 20260901211904 | 22 | 219 | 1.6 | 4.8 | 0.00 | 0.28 | 0.28 | 35 | 1018.4 |
| 20260901211404 | 22 | 238 | 0.0 | 4.8 | 0.00 | 0.28 | 0.28 | 37 | 1018.5 |
| 20260901210904 | 22 | 240 | 0.0 | 0.0 | 0.00 | 0.28 | 0.28 | 36 | 1018.5 |
| 20260901210404 | 22 | 215 | 0.0 | 0.0 | 0.00 | 0.28 | 0.28 | 36 | 1018.5 |
| 20260901205904 | 22 | 215 | 0.0 | 4.8 | 0.00 | 0.28 | 0.28 | 36 | 1018.6 |
| 20260901205404 | 22 | 205 | 1.6 | 4.8 | 0.00 | 0.28 | 0.28 | 37 | 1018.6 |
| 20260901203904 | 22 | 232 | 1.6 | 8.0 | 0.00 | 0.28 | 0.28 | 37 | 1018.8 |
| 20260901202904 | 22 | 212 | 1.6 | 11.3 | 0.00 | 0.28 | 0.28 | 38 | 1018.9 |
| 20260901201904 | 21 | 226 | 1.6 | 8.0 | 0.00 | 0.28 | 0.28 | 38 | 1019.0 |
| 20260901201404 | 21 | 226 | 3.2 | 9.7 | 0.00 | 0.28 | 0.28 | 39 | 1019.1 |
| 20260901200904 | 21 | 252 | 0.0 | 11.3 | 0.00 | 0.28 | 0.28 | 40 | 1019.3 |
| 20260901200404 | 21 | 239 | 0.0 | 0.0 | 0.00 | 0.28 | 0.28 | 40 | 1019.4 |
| 20260901195404 | 21 | 232 | 3.2 | 11.3 | 0.00 | 0.28 | 0.28 | 42 | 1019.5 |
| 20260901194904 | 21 | 230 | 1.6 | 4.8 | 0.00 | 0.28 | 0.28 | 42 | 1019.5 |
| 20260901194404 | 21 | 235 | 3.2 | 12.9 | 0.00 | 0.28 | 0.28 | 43 | 1019.6 |
| 20260901193904 | 20 | 239 | 0.0 | 9.7 | 0.00 | 0.28 | 0.28 | 45 | 1019.7 |
| 20260901193404 | 20 | 227 | 4.8 | 16.1 | 0.00 | 0.28 | 0.28 | 45 | 1019.7 |
| 20260901192904 | 20 | 234 | 3.2 | 8.0 | 0.00 | 0.28 | 0.28 | 45 | 1019.8 |
| 20260901192404 | 20 | 227 | 1.6 | 9.7 | 0.00 | 0.28 | 0.28 | 47 | 1019.8 |
| 20260901191904 | 20 | 232 | 1.6 | 4.8 | 0.00 | 0.28 | 0.28 | 46 | 1019.7 |
| 20260901190904 | 19 | 225 | 0.0 | 0.0 | 0.00 | 0.28 | 0.28 | 48 | 1019.8 |
| 20260901190404 | 18 | 225 | 8.0 | 14.5 | 0.00 | 0.28 | 0.28 | 49 | 1019.8 |
| 20260901185904 | 18 | 51 | 1.6 | 4.8 | 0.00 | 0.28 | 0.28 | 52 | 1019.9 |
| 20260901185404 | 18 | 51 | 0.0 | 0.0 | 0.00 | 0.28 | 0.28 | 55 | 1019.9 |
| 20260901184404 | 17 | 51 | 0.0 | 0.0 | 0.00 | 0.28 | 0.28 | 57 | 1020.0 |
| 20260901183904 | 17 | 51 | 0.0 | 0.0 | 0.00 | 0.28 | 0.28 | 56 | 1020.0 |
| 20260901183404 | 17 | 51 | 1.6 | 4.8 | 0.00 | 0.28 | 0.28 | 59 | 1020.0 |
| 20260901182904 | 17 | 46 | 1.6 | 8.0 | 0.00 | 0.28 | 0.28 | 59 | 1020.0 |
| 20260901182404 | 16 | 47 | 0.0 | 0.0 | 0.00 | 0.28 | 0.28 | 62 | 1020.0 |
| 20260901181904 | 16 | 47 | 0.0 | 4.8 | 0.00 | 0.28 | 0.28 | 61 | 1020.1 |
| 20260901180904 | 16 | 52 | 1.6 | 9.7 | 0.00 | 0.28 | 0.28 | 65 | 1020.1 |
| 20260901180404 | 16 | 56 | 0.0 | 0.0 | 0.00 | 0.28 | 0.28 | 67 | 1020.3 |
| 20260901175904 | 16 | 56 | 1.6 | 3.2 | 0.00 | 0.28 | 0.28 | 68 | 1020.4 |
| 20260901175404 | 15 | 51 | 0.0 | 0.0 | 0.00 | 0.28 | 0.28 | 70 | 1020.4 |
| 20260901174904 | 15 | 51 | 0.0 | 0.0 | 0.00 | 0.28 | 0.28 | 71 | 1020.5 |
| 20260901174404 | 15 | 51 | 0.0 | 0.0 | 0.00 | 0.28 | 0.28 | 75 | 1020.5 |
| 20260901173904 | 15 | 51 | 0.0 | 0.0 | 0.00 | 0.28 | 0.28 | 75 | 1020.6 |
| 20260901173404 | 14 | 51 | 0.0 | 0.0 | 0.00 | 0.28 | 0.28 | 75 | 1020.6 |
| 20260901172904 | 14 | 51 | 0.0 | 0.0 | 0.00 | 0.28 | 0.28 | 76 | 1020.7 |
| 20260901172404 | 14 | 48 | 0.0 | 0.0 | 0.00 | 0.28 | 0.28 | 76 | 1020.7 |
| 20260901171404 | 13 | 35 | 0.0 | 0.0 | 0.00 | 0.28 | 0.28 | 77 | 1020.8 |
| 20260901170904 | 13 | 35 | 0.0 | 0.0 | 0.00 | 0.28 | 0.28 | 77 | 1020.8 |
| 20260901170404 | 13 | 35 | 0.0 | 0.0 | 0.00 | 0.28 | 0.28 | 78 | 1020.8 |
| 20260901165904 | 13 | 35 | 0.0 | 0.0 | 0.00 | 0.28 | 0.28 | 78 | 1020.8 |
| 20260901165404 | 13 | 35 | 0.0 | 0.0 | 0.00 | 0.28 | 0.28 | 78 | 1020.8 |
| 20260901164904 | 13 | 35 | 0.0 | 0.0 | 0.00 | 0.28 | 0.28 | 78 | 1020.8 |
| 20260901164404 | 13 | 35 | 0.0 | 0.0 | 0.00 | 0.28 | 0.28 | 78 | 1020.7 |
| 20260901163904 | 13 | 35 | 0.0 | 0.0 | 0.00 | 0.28 | 0.28 | 79 | 1020.7 |
| 20260901163404 | 13 | 35 | 0.0 | 0.0 | 0.00 | 0.28 | 0.28 | 79 | 1020.7 |
| 20260901162904 | 13 | 35 | 0.0 | 0.0 | 0.00 | 0.28 | 0.28 | 79 | 1020.7 |
| 20260901161404 | 13 | 35 | 0.0 | 0.0 | 0.00 | 0.28 | 0.28 | 79 | 1020.6 |
| 20260901160404 | 13 | 35 | 0.0 | 0.0 | 0.03 | 0.28 | 0.28 | 79 | 1020.6 |
| 20260901155904 | 13 | 35 | 0.0 | 0.0 | 0.05 | 0.28 | 0.28 | 79 | 1020.6 |
| 20260901154904 | 12 | 35 | 0.0 | 0.0 | 0.08 | 0.28 | 0.28 | 79 | 1020.6 |
| 20260901153904 | 12 | 35 | 0.0 | 0.0 | 0.15 | 0.28 | 0.28 | 79 | 1020.6 |
| 20260901153404 | 12 | 35 | 0.0 | 0.0 | 0.15 | 0.28 | 0.28 | 79 | 1020.6 |
| 20260901152904 | 12 | 35 | 0.0 | 0.0 | 0.18 | 0.28 | 0.28 | 79 | 1020.7 |
| 20260901152404 | 12 | 35 | 0.0 | 0.0 | 0.18 | 0.28 | 0.28 | 79 | 1020.6 |
| 20260901151904 | 12 | 35 | 0.0 | 0.0 | 0.18 | 0.28 | 0.28 | 79 | 1020.6 |
| 20260901151404 | 12 | 35 | 0.0 | 0.0 | 0.18 | 0.28 | 0.28 | 78 | 1020.6 |
| 20260901150904 | 12 | 35 | 0.0 | 0.0 | 0.15 | 0.25 | 0.25 | 78 | 1020.6 |
| 20260901150404 | 12 | 35 | 0.0 | 0.0 | 0.15 | 0.25 | 0.25 | 78 | 1020.6 |
| 20260901145904 | 12 | 35 | 0.0 | 0.0 | 0.13 | 0.23 | 0.23 | 78 | 1020.7 |
| 20260901145404 | 12 | 35 | 0.0 | 0.0 | 0.13 | 0.23 | 0.23 | 78 | 1020.6 |
| 20260901144404 | 12 | 35 | 0.0 | 0.0 | 0.05 | 0.15 | 0.15 | 78 | 1020.5 |
| 20260901143905 | 12 | 35 | 0.0 | 0.0 | 0.03 | 0.13 | 0.13 | 78 | 1020.6 |
| 20260901143404 | 12 | 35 | 0.0 | 0.0 | 0.03 | 0.13 | 0.13 | 78 | 1020.5 |
| 20260901142404 | 12 | 35 | 0.0 | 0.0 | 0.00 | 0.10 | 0.10 | 78 | 1020.3 |
| 20260901141904 | 12 | 35 | 0.0 | 0.0 | 0.00 | 0.10 | 0.10 | 78 | 1020.3 |
| 20260901141404 | 12 | 35 | 0.0 | 0.0 | 0.00 | 0.10 | 0.10 | 78 | 1020.3 |
| 20260901140904 | 12 | 35 | 0.0 | 0.0 | 0.00 | 0.10 | 0.10 | 78 | 1020.3 |
| 20260901140404 | 12 | 35 | 0.0 | 0.0 | 0.00 | 0.10 | 0.10 | 78 | 1020.3 |
| 20260901135904 | 12 | 35 | 0.0 | 0.0 | 0.00 | 0.10 | 0.10 | 78 | 1020.3 |
| 20260901135404 | 12 | 35 | 0.0 | 0.0 | 0.03 | 0.10 | 0.10 | 77 | 1020.2 |
| 20260901134404 | 12 | 35 | 0.0 | 0.0 | 0.05 | 0.10 | 0.10 | 77 | 1020.1 |
| 20260901133904 | 12 | 35 | 0.0 | 0.0 | 0.08 | 0.10 | 0.10 | 77 | 1020.1 |
| 20260901133404 | 12 | 35 | 0.0 | 0.0 | 0.08 | 0.10 | 0.10 | 77 | 1020.2 |
| 20260901132904 | 12 | 35 | 0.0 | 0.0 | 0.08 | 0.10 | 0.10 | 77 | 1020.1 |
| 20260901131904 | 12 | 35 | 0.0 | 0.0 | 0.08 | 0.10 | 0.10 | 77 | 1020.1 |
| 20260901130904 | 12 | 35 | 0.0 | 0.0 | 0.08 | 0.10 | 0.10 | 76 | 1020.1 |
| 20260901130404 | 12 | 35 | 0.0 | 0.0 | 0.08 | 0.10 | 0.10 | 76 | 1020.0 |
| 20260901125904 | 12 | 35 | 0.0 | 0.0 | 0.08 | 0.10 | 0.10 | 76 | 1020.1 |
| 20260901124904 | 12 | 35 | 0.0 | 0.0 | 0.05 | 0.08 | 0.08 | 76 | 1019.9 |
| 20260901124404 | 12 | 35 | 0.0 | 0.0 | 0.03 | 0.05 | 0.05 | 76 | 1020.0 |
| 20260901123904 | 12 | 35 | 0.0 | 0.0 | 0.00 | 0.03 | 0.03 | 75 | 1019.9 |